Location: Dumbr?vi?a
(45.8833°N, 22.7000°E)
Time: 20:59:36
(UTC+00:00)

Cosmos 1933 Rocket - Pass Details

Date: 03 March 2021
Orbit: 607 x 629 km, 82.5° (Epoch: 13 April)

Event Time Altitude Azimuth Distance (km) Brightness Sun altitude
Rises 17:18:39 0° 173° (S) 2,858 6.9 -11.2°
Reaches altitude 10° 17:20:54 10° 168° (SSE) 1,961 6.0 -11.6°
Maximum altitude 17:25:05 50° 94° (E) 790 3.7 -12.3°
Drops below altitude 10° 17:29:20 10° 19° (NNE) 1,990 6.0 -13.1°
Sets 17:31:37 0° 14° (NNE) 2,904 6.9 -13.5°
